Location: Colle Santa Colomba
(42.0333°N, 12.5667°E)
Time: 03:22:52
(UTC+00:00)

Meteor 2-10 Rocket - Pass Details

Date: 25 October 2021
Orbit: 733 x 885 km, 81.2° (Epoch: 28 November)

Event Time Altitude Azimuth Distance (km) Brightness Sun altitude
Rises 17:02:16 0° 170° (S) 3,405 6.8 -9.8°
Reaches altitude 10° 17:04:48 10° 164° (SSE) 2,453 6.0 -10.3°
Maximum altitude 17:10:02 44° 94° (E) 1,120 3.9 -11.2°
Drops below altitude 10° 17:15:06 10° 23° (NNE) 2,372 5.8 -12.2°
Sets 17:17:31 0° 17° (NNE) 3,282 6.5 -12.6°
